DateTimeUTC,F1_A11,F1_S11,BsB_S11,BsG_S11,BsR_S11,BbsB_S11,BbsG_S11,BbsR_S11,BaB_A11,BaG_A11,BaR_A11,Tu_S11,T_S11,Uu_S11,U_S11,P_S11,T1_A11
2021-08-28T02:00:00Z,00000200,20000000,,,,,,,-000.00,0000.30,0000.23,18.8,25.6,07.6,05.0,0669.7,31.0
2021-08-28T02:01:00Z,00000200,20000000,,,,,,,-000.07,-000.26,0000.08,18.8,25.6,07.6,05.0,0669.7,31.1
2021-08-28T02:02:00Z,00000200,20000000,,,,,,,-000.13,-000.08,-000.16,18.8,25.6,07.6,05.0,0669.7,31.0
2021-08-28T02:03:00Z,00000200,60000000,,,,,,,0000.29,0000.18,-000.07,18.8,25.6,07.6,05.0,0669.7,31.1
2021-08-28T02:04:00Z,00000200,40000000,0000.46,0000.70,0000.51,0000.54,0000.23,0000.18,-000.13,-000.02,0000.26,19.1,25.5,07.5,05.1,0670.5,31.1
2021-08-28T02:05:00Z,00000200,00000000,0000.77,0000.83,0000.08,0000.40,-000.18,-000.07,0000.09,0000.02,-000.29,19.2,25.5,07.5,05.1,0670.6,31.1
2021-08-28T02:06:00Z,00000200,00000000,0000.73,0000.43,0000.17,-000.21,-000.18,-000.31,0000.11,-000.34,0000.29,19.2,25.5,07.4,05.0,0670.6,31.0
2021-08-28T02:07:00Z,00000200,00000000,0000.49,0000.40,0000.38,0000.55,-000.08,0000.10,-000.05,0000.33,-000.39,19.2,25.5,07.4,05.1,0670.6,31.0
2021-08-28T02:08:00Z,00000200,00000000,0000.20,0000.77,0000.07,0000.15,-000.22,0000.00,0000.02,-000.28,0000.09,19.1,25.4,07.4,05.0,0670.6,31.0
2021-08-28T02:09:00Z,00000200,00000000,0000.83,0000.60,0000.08,0000.65,-000.09,-000.08,-000.30,0000.45,-000.25,19.1,25.4,07.4,05.1,0670.6,31.0
2021-08-28T02:10:00Z,00000200,00000000,0000.32,0000.43,-000.04,0000.56,0000.26,-000.20,0000.19,-000.40,0000.06,19.1,25.4,07.3,05.0,0670.6,31.0
2021-08-28T02:11:00Z,00000200,00000000,0000.20,0000.27,0000.03,0000.44,-000.03,0000.01,0000.14,-000.01,0000.16,19.1,25.4,07.4,05.1,0670.6,31.0
2021-08-28T02:12:00Z,00000200,00000000,0000.15,0000.23,0000.07,0000.46,0000.18,0000.17,-000.57,-000.09,-000.05,19.1,25.4,07.4,05.1,0670.6,31.0
2021-08-28T02:13:00Z,00000200,00000000,0000.66,0000.11,-000.09,-000.29,-000.16,-000.05,-000.01,0000.17,-000.11,19.1,25.4,07.4,05.0,0670.6,31.0
2021-08-28T02:14:00Z,00000200,00000000,0000.69,0000.33,-000.13,-000.11,-000.01,-000.25,0000.34,0000.08,0000.28,19.1,25.4,07.4,05.1,0670.6,31.0
2021-08-28T02:15:00Z,00000200,00000000,0000.91,0000.52,0000.08,0000.18,0000.03,-000.26,0000.24,-000.00,0000.03,19.1,25.3,07.4,05.0,0670.6,31.0
2021-08-28T02:16:00Z,00000200,00000000,0000.55,0000.41,0000.18,0000.87,-000.06,0000.31,-000.15,0000.13,0000.01,19.1,25.4,07.3,05.0,0670.6,31.0
2021-08-28T02:17:00Z,00000200,00000000,0000.88,0000.70,-000.28,-000.11,0000.29,-000.12,0000.14,0000.22,0000.20,19.2,25.4,07.2,04.9,0670.6,31.1
2021-08-28T02:18:00Z,00000200,00000000,0000.97,0000.21,0000.25,-000.11,0000.10,-000.01,-000.19,-000.16,-000.44,19.4,25.5,07.2,04.9,0670.6,31.1
2021-08-28T02:19:00Z,00000200,00000000,0000.83,0000.34,-000.24,0000.69,0000.06,-000.35,0000.05,-000.04,0000.06,19.4,25.5,07.1,04.9,0670.6,31.1
2021-08-28T02:20:00Z,00000200,00000000,0000.65,0000.53,0000.06,0000.14,-000.27,0000.10,-000.32,-000.48,-000.23,19.5,25.6,07.1,04.9,0670.6,31.1
2021-08-28T02:21:00Z,00000200,00000000,0001.20,-000.13,0000.30,0000.98,0000.16,-000.24,-000.07,0000.02,0000.08,19.5,25.6,07.0,04.8,0670.6,31.1
2021-08-28T02:22:00Z,00000200,00000000,0001.60,0000.29,-000.24,0000.40,0000.12,-000.14,-000.16,0000.17,-000.33,19.4,25.6,07.0,04.8,0670.6,31.1
2021-08-28T02:23:00Z,00000200,00000000,0000.44,0000.38,-000.11,0000.71,0000.26,-000.19,0000.03,-000.23,0000.12,19.4,25.6,07.0,04.8,0670.6,31.1
2021-08-28T02:24:00Z,00000200,00000000,0000.13,0000.57,-000.09,0000.19,-000.16,-000.31,-000.17,-000.12,0000.37,19.4,25.5,06.8,04.7,0670.6,31.1
2021-08-28T02:25:00Z,00000200,00000000,0000.29,0000.46,0000.18,0000.41,-000.18,-000.27,-000.12,-000.13,-000.21,19.3,25.5,06.9,04.7,0670.7,31.0
2021-08-28T02:26:00Z,00000200,00000000,-000.14,0000.32,-000.16,0000.09,-000.48,-000.40,0000.28,-000.05,-000.06,19.3,25.5,06.8,04.7,0670.7,31.0
2021-08-28T02:27:00Z,00000200,00000000,0000.60,0000.49,0000.19,-000.23,-000.09,-000.07,-000.21,0000.12,0000.09,19.3,25.5,06.9,04.7,0670.7,31.0
2021-08-28T02:28:00Z,00000200,00000000,0001.21,0000.44,-000.09,0000.20,0000.09,-000.00,0000.03,0000.08,-000.18,19.3,25.5,06.9,04.7,0670.7,31.0
2021-08-28T02:29:00Z,00000200,00000000,0001.14,0000.14,-000.22,0000.17,0000.07,-000.01,0000.05,-000.18,-000.20,19.2,25.5,06.9,04.7,0670.7,31.0
2021-08-28T02:30:00Z,00000200,00000000,0001.01,0000.40,-000.01,0000.29,-000.21,-000.36,0000.04,0000.15,0000.08,19.2,25.5,06.8,04.6,0670.7,31.0
2021-08-28T02:31:00Z,00000200,00000000,0000.48,0000.22,0000.12,0000.36,0000.07,0000.09,0000.22,0000.40,0000.43,19.3,25.5,06.8,04.6,0670.7,31.0
2021-08-28T02:32:00Z,00000200,00000000,0000.94,0000.61,0000.20,0000.39,0000.34,0000.12,-000.24,-000.29,-000.61,19.4,25.5,06.8,04.7,0670.7,31.1
2021-08-28T02:33:00Z,00000200,00000000,0000.55,0000.24,0000.06,0000.70,-000.04,0000.19,0000.15,-000.10,0000.53,19.4,25.6,06.7,04.6,0670.6,31.1
2021-08-28T02:34:00Z,00000200,00000000,0000.82,0000.09,-000.07,0000.18,0000.16,-000.29,0000.08,0000.30,0000.18,19.4,25.6,06.8,04.7,0670.6,31.1
2021-08-28T02:35:00Z,00000200,00000000,0000.43,0000.60,0000.02,-000.29,0000.08,-000.01,-000.20,-000.10,-000.16,19.4,25.6,06.8,04.7,0670.6,31.1
2021-08-28T02:36:00Z,00000200,00000000,0000.36,0000.36,0000.29,0000.11,-000.02,0000.16,0000.18,0000.23,-000.17,19.4,25.6,06.8,04.7,0670.6,31.1
2021-08-28T02:37:00Z,00000200,00000000,-000.75,0000.40,0000.27,0000.63,0000.37,-000.37,0000.02,-000.20,0000.22,19.4,25.6,06.8,04.7,0670.6,31.0
2021-08-28T02:38:00Z,00000200,00000000,0000.21,0000.20,0000.12,0000.34,0000.06,0000.06,0000.02,-000.21,-000.36,19.3,25.5,06.9,04.8,0670.7,31.0
2021-08-28T02:39:00Z,00000200,00000000,0000.26,0000.44,-000.11,0000.57,-000.00,-000.04,-000.23,0000.05,0000.16,19.3,25.5,06.8,04.6,0670.6,31.1
2021-08-28T02:40:00Z,00000200,00000000,0000.43,0000.30,0000.38,-000.14,0000.09,-000.06,0000.24,0000.28,0000.31,19.3,25.5,06.9,04.7,0670.7,31.0
2021-08-28T02:41:00Z,00000200,00000000,-000.03,0000.30,-000.02,0000.09,0000.00,-000.05,0000.25,-000.20,0000.02,19.3,25.5,07.0,04.8,0670.7,31.0
2021-08-28T02:42:00Z,00000200,00000000,0000.78,0000.08,-000.08,0000.37,0000.04,-000.19,-000.40,0000.27,-000.37,19.2,25.5,07.0,04.8,0670.7,31.0
2021-08-28T02:43:00Z,00000200,00000000,0000.32,0000.36,-000.36,0000.46,-000.12,-000.44,-000.05,-000.27,0000.27,19.2,25.5,06.9,04.7,0670.7,31.0
2021-08-28T02:44:00Z,00000200,00000000,0001.16,0000.55,-000.12,0000.13,0000.05,-000.31,0000.23,0000.53,-000.08,19.2,25.4,06.9,04.7,0670.7,31.0
2021-08-28T02:45:00Z,00000200,00000000,0000.12,0000.42,0000.10,0000.69,0000.00,-000.09,0000.22,-000.05,0000.13,19.2,25.4,06.9,04.7,0670.7,31.0
2021-08-28T02:46:00Z,00000200,00000000,0000.22,0000.07,-000.17,0000.09,0000.13,0000.26,0000.06,-000.18,0000.08,19.2,25.5,06.9,04.7,0670.7,31.0
2021-08-28T02:47:00Z,00000200,00000000,0000.15,0000.47,0000.25,0000.12,-000.10,-000.24,-000.32,0000.03,-000.19,19.3,25.5,06.9,04.7,0670.6,31.0
2021-08-28T02:48:00Z,00000200,00000000,0000.18,0000.33,-000.27,-000.35,-000.12,-000.04,-000.00,0000.36,-000.03,19.3,25.5,06.9,04.7,0670.6,31.0
2021-08-28T02:49:00Z,00000200,00000000,0000.13,0000.34,-000.11,0000.45,-000.04,-000.03,-000.06,-000.59,0000.10,19.3,25.5,06.8,04.7,0670.6,31.0
2021-08-28T02:50:00Z,00000200,00000000,0000.52,0000.47,0000.52,0000.33,-000.12,-000.15,0000.21,0000.04,0000.28,19.3,25.5,07.0,04.8,0670.6,31.0
2021-08-28T02:51:00Z,00000200,00000000,0000.73,0000.28,0000.17,0000.37,0000.10,-000.12,-000.19,0000.11,-000.23,19.3,25.5,06.8,04.6,0670.6,31.0
2021-08-28T02:52:00Z,00000200,00000000,0000.33,0000.26,-000.27,-000.02,0000.30,-000.17,0000.30,-000.05,0000.33,19.3,25.5,06.9,04.8,0670.5,31.0
2021-08-28T02:53:00Z,00000200,00000000,-000.34,0000.08,0000.39,0000.26,-000.19,-000.03,0000.22,0000.37,0000.08,19.2,25.5,06.9,04.7,0670.6,31.0
2021-08-28T02:54:00Z,00000200,00000000,0000.79,0000.38,0000.16,0000.60,0000.16,0000.09,-000.13,-000.19,-000.54,19.2,25.5,06.9,04.7,0670.6,31.0
2021-08-28T02:55:00Z,00000200,00000000,0000.89,0000.47,0000.12,0000.71,-000.03,-000.20,-000.44,-000.42,0000.04,19.2,25.5,07.0,04.8,0670.6,31.0
2021-08-28T02:56:00Z,00000200,00000000,0000.04,0000.24,-000.04,-000.07,-000.21,-000.01,0000.52,0000.17,0000.05,19.2,25.4,06.9,04.7,0670.5,31.0
2021-08-28T02:57:00Z,00000200,40000000,,,,,,,-000.31,-000.10,-000.23,19.2,25.5,07.3,05.0,0670.5,31.0
2021-08-28T02:58:00Z,00000200,60000000,,,,,,,-000.20,-000.00,0000.17,18.9,25.6,06.9,04.6,0669.6,31.0
2021-08-28T02:59:00Z,00000200,20000000,,,,,,,-000.30,-000.57,-000.75,18.8,25.7,06.9,04.6,0669.6,31.0
